owner,sensor,date,latitude,longitude,vertical_datum,sea_water_temperature,qcFlag 
TCOON,ioos:station:TCOON:127:1,2017-08-01T00:18:00Z,28.2598,-96.7737,0.0,32.5,2 
TCOON,ioos:station:TCOON:127:1,2017-08-01T01:18:00Z,28.2598,-96.7737,0.0,32.2,2 
TCOON,ioos:station:TCOON:127:1,2017-08-01T02:18:00Z,28.2598,-96.7737,0.0,31.8,2 
TCOON,ioos:station:TCOON:127:1,2017-08-01T03:18:00Z,28.2598,-96.7737,0.0,31.7,2 
TCOON,ioos:station:TCOON:127:1,2017-08-01T04:18:00Z,28.2598,-96.7737,0.0,31.3,2 
TCOON,ioos:station:TCOON:127:1,2017-08-01T05:18:00Z,28.2598,-96.7737,0.0,31.2,2 
TCOON,ioos:station:TCOON:127:1,2017-08-01T06:18:00Z,28.2598,-96.7737,0.0,30.9,2 
TCOON,ioos:station:TCOON:127:1,2017-08-01T07:18:00Z,28.2598,-96.7737,0.0,30.7,2 
TCOON,ioos:station:TCOON:127:1,2017-08-01T08:18:00Z,28.2598,-96.7737,0.0,30.3,2 
TCOON,ioos:station:TCOON:127:1,2017-08-01T09:18:00Z,28.2598,-96.7737,0.0,30.2,2 
TCOON,ioos:station:TCOON:127:1,2017-08-01T10:18:00Z,28.2598,-96.7737,0.0,30.4,2 
TCOON,ioos:station:TCOON:127:1,2017-08-01T11:18:00Z,28.2598,-96.7737,0.0,30.2,2 
TCOON,ioos:station:TCOON:127:1,2017-08-01T12:18:00Z,28.2598,-96.7737,0.0,30.0,2 
TCOON,ioos:station:TCOON:127:1,2017-08-01T13:18:00Z,28.2598,-96.7737,0.0,30.0,2 
TCOON,ioos:station:TCOON:127:1,2017-08-01T14:18:00Z,28.2598,-96.7737,0.0,30.1,2 
TCOON,ioos:station:TCOON:127:1,2017-08-01T15:18:00Z,28.2598,-96.7737,0.0,30.3,2 
TCOON,ioos:station:TCOON:127:1,2017-08-01T16:18:00Z,28.2598,-96.7737,0.0,30.7,2 
TCOON,ioos:station:TCOON:127:1,2017-08-01T17:18:00Z,28.2598,-96.7737,0.0,31.2,2 
TCOON,ioos:station:TCOON:127:1,2017-08-01T19:24:00Z,28.2598,-96.7737,0.0,32.3,2 
TCOON,ioos:station:TCOON:127:1,2017-08-01T20:24:00Z,28.2598,-96.7737,0.0,32.6,2 
TCOON,ioos:station:TCOON:127:1,2017-08-01T21:48:00Z,28.2598,-96.7737,0.0,32.9,2 
TCOON,ioos:station:TCOON:127:1,2017-08-01T22:24:00Z,28.2598,-96.7737,0.0,32.9,2 
TCOON,ioos:station:TCOON:127:1,2017-08-02T01:18:00Z,28.2598,-96.7737,0.0,32.6,2 
TCOON,ioos:station:TCOON:127:1,2017-08-02T02:18:00Z,28.2598,-96.7737,0.0,32.0,2 
TCOON,ioos:station:TCOON:127:1,2017-08-02T03:18:00Z,28.2598,-96.7737,0.0,31.8,2 
TCOON,ioos:station:TCOON:127:1,2017-08-02T04:18:00Z,28.2598,-96.7737,0.0,31.5,2 
TCOON,ioos:station:TCOON:127:1,2017-08-02T05:24:00Z,28.2598,-96.7737,0.0,31.4,2 
TCOON,ioos:station:TCOON:127:1,2017-08-02T06:24:00Z,28.2598,-96.7737,0.0,31.2,2 
TCOON,ioos:station:TCOON:127:1,2017-08-02T07:30:00Z,28.2598,-96.7737,0.0,31.1,2 
TCOON,ioos:station:TCOON:127:1,2017-08-02T08:30:00Z,28.2598,-96.7737,0.0,31.1,2 
TCOON,ioos:station:TCOON:127:1,2017-08-02T09:30:00Z,28.2598,-96.7737,0.0,31.0,2 
TCOON,ioos:station:TCOON:127:1,2017-08-02T10:30:00Z,28.2598,-96.7737,0.0,30.8,2 
TCOON,ioos:station:TCOON:127:1,2017-08-02T11:30:00Z,28.2598,-96.7737,0.0,30.6,2 
TCOON,ioos:station:TCOON:127:1,2017-08-02T12:24:00Z,28.2598,-96.7737,0.0,30.5,2 
TCOON,ioos:station:TCOON:127:1,2017-08-02T13:24:00Z,28.2598,-96.7737,0.0,30.4,2 
TCOON,ioos:station:TCOON:127:1,2017-08-02T14:30:00Z,28.2598,-96.7737,0.0,30.6,2 
TCOON,ioos:station:TCOON:127:1,2017-08-02T15:30:00Z,28.2598,-96.7737,0.0,31.0,2 
TCOON,ioos:station:TCOON:127:1,2017-08-02T16:30:00Z,28.2598,-96.7737,0.0,31.3,2 
TCOON,ioos:station:TCOON:127:1,2017-08-03T01:30:00Z,28.2598,-96.7737,0.0,31.8,2 
TCOON,ioos:station:TCOON:127:1,2017-08-03T13:12:00Z,28.2598,-96.7737,0.0,30.6,2 
TCOON,ioos:station:TCOON:127:1,2017-08-03T13:24:00Z,28.2598,-96.7737,0.0,30.6,2 
TCOON,ioos:station:TCOON:127:1,2017-08-03T14:18:00Z,28.2598,-96.7737,0.0,30.3,2 
TCOON,ioos:station:TCOON:127:1,2017-08-03T15:18:00Z,28.2598,-96.7737,0.0,30.2,2 
TCOON,ioos:station:TCOON:127:1,2017-08-03T16:30:00Z,28.2598,-96.7737,0.0,30.1,2 
TCOON,ioos:station:TCOON:127:1,2017-08-03T19:00:00Z,28.2598,-96.7737,0.0,29.9,2 
TCOON,ioos:station:TCOON:127:1,2017-08-03T21:30:00Z,28.2598,-96.7737,0.0,30.2,2 
TCOON,ioos:station:TCOON:127:1,2017-08-04T11:18:00Z,28.2598,-96.7737,0.0,29.2,2 
TCOON,ioos:station:TCOON:127:1,2017-08-04T19:48:00Z,28.2598,-96.7737,0.0,31.0,2 
TCOON,ioos:station:TCOON:127:1,2017-08-04T20:12:00Z,28.2598,-96.7737,0.0,31.0,2 
TCOON,ioos:station:TCOON:127:1,2017-08-04T21:24:00Z,28.2598,-96.7737,0.0,31.2,2 
TCOON,ioos:station:TCOON:127:1,2017-08-04T22:30:00Z,28.2598,-96.7737,0.0,31.1,2 
TCOON,ioos:station:TCOON:127:1,2017-08-05T05:18:00Z,28.2598,-96.7737,0.0,30.4,2 
TCOON,ioos:station:TCOON:127:1,2017-08-05T06:18:00Z,28.2598,-96.7737,0.0,30.4,2 
TCOON,ioos:station:TCOON:127:1,2017-08-05T07:18:00Z,28.2598,-96.7737,0.0,30.2,2 
TCOON,ioos:station:TCOON:127:1,2017-08-05T08:18:00Z,28.2598,-96.7737,0.0,30.0,2 
TCOON,ioos:station:TCOON:127:1,2017-08-05T09:24:00Z,28.2598,-96.7737,0.0,30.0,2 
TCOON,ioos:station:TCOON:127:1,2017-08-05T10:36:00Z,28.2598,-96.7737,0.0,30.1,2 
TCOON,ioos:station:TCOON:127:1,2017-08-05T12:30:00Z,28.2598,-96.7737,0.0,29.8,2 
TCOON,ioos:station:TCOON:127:1,2017-08-05T13:42:00Z,28.2598,-96.7737,0.0,29.7,2 
TCOON,ioos:station:TCOON:127:1,2017-08-05T14:30:00Z,28.2598,-96.7737,0.0,29.8,2 
TCOON,ioos:station:TCOON:127:1,2017-08-05T15:36:00Z,28.2598,-96.7737,0.0,30.0,2 
TCOON,ioos:station:TCOON:127:1,2017-08-05T16:48:00Z,28.2598,-96.7737,0.0,30.2,2 
TCOON,ioos:station:TCOON:127:1,2017-08-05T17:48:00Z,28.2598,-96.7737,0.0,30.5,2 
TCOON,ioos:station:TCOON:127:1,2017-08-05T18:30:00Z,28.2598,-96.7737,0.0,30.6,2 
TCOON,ioos:station:TCOON:127:1,2017-08-05T19:48:00Z,28.2598,-96.7737,0.0,31.1,2 
TCOON,ioos:station:TCOON:127:1,2017-08-05T22:00:00Z,28.2598,-96.7737,0.0,31.3,2 
TCOON,ioos:station:TCOON:127:1,2017-08-05T22:24:00Z,28.2598,-96.7737,0.0,31.3,2 
TCOON,ioos:station:TCOON:127:1,2017-08-06T03:18:00Z,28.2598,-96.7737,0.0,30.8,2 
TCOON,ioos:station:TCOON:127:1,2017-08-06T04:18:00Z,28.2598,-96.7737,0.0,30.6,2 
TCOON,ioos:station:TCOON:127:1,2017-08-06T05:18:00Z,28.2598,-96.7737,0.0,30.5,2 
TCOON,ioos:station:TCOON:127:1,2017-08-06T06:18:00Z,28.2598,-96.7737,0.0,30.3,2 
TCOON,ioos:station:TCOON:127:1,2017-08-06T07:18:00Z,28.2598,-96.7737,0.0,30.2,2 
TCOON,ioos:station:TCOON:127:1,2017-08-06T08:18:00Z,28.2598,-96.7737,0.0,30.1,2 
TCOON,ioos:station:TCOON:127:1,2017-08-06T09:18:00Z,28.2598,-96.7737,0.0,29.9,2 
TCOON,ioos:station:TCOON:127:1,2017-08-06T10:18:00Z,28.2598,-96.7737,0.0,29.8,2 
TCOON,ioos:station:TCOON:127:1,2017-08-06T11:18:00Z,28.2598,-96.7737,0.0,29.7,2 
TCOON,ioos:station:TCOON:127:1,2017-08-06T12:18:00Z,28.2598,-96.7737,0.0,29.6,2 
TCOON,ioos:station:TCOON:127:1,2017-08-06T13:18:00Z,28.2598,-96.7737,0.0,29.4,2 
TCOON,ioos:station:TCOON:127:1,2017-08-06T14:18:00Z,28.2598,-96.7737,0.0,29.4,2 
TCOON,ioos:station:TCOON:127:1,2017-08-06T15:18:00Z,28.2598,-96.7737,0.0,29.3,2 
TCOON,ioos:station:TCOON:127:1,2017-08-06T16:18:00Z,28.2598,-96.7737,0.0,29.6,2 
TCOON,ioos:station:TCOON:127:1,2017-08-06T17:18:00Z,28.2598,-96.7737,0.0,29.8,2 
TCOON,ioos:station:TCOON:127:1,2017-08-06T18:18:00Z,28.2598,-96.7737,0.0,30.0,2 
TCOON,ioos:station:TCOON:127:1,2017-08-06T19:18:00Z,28.2598,-96.7737,0.0,30.2,2 
TCOON,ioos:station:TCOON:127:1,2017-08-06T20:18:00Z,28.2598,-96.7737,0.0,30.1,2 
TCOON,ioos:station:TCOON:127:1,2017-08-06T21:18:00Z,28.2598,-96.7737,0.0,30.2,2 
TCOON,ioos:station:TCOON:127:1,2017-08-06T22:18:00Z,28.2598,-96.7737,0.0,30.2,2 
TCOON,ioos:station:TCOON:127:1,2017-08-06T23:18:00Z,28.2598,-96.7737,0.0,30.3,2 
TCOON,ioos:station:TCOON:127:1,2017-08-07T00:18:00Z,28.2598,-96.7737,0.0,30.3,2 
TCOON,ioos:station:TCOON:127:1,2017-08-07T01:18:00Z,28.2598,-96.7737,0.0,30.0,2 
TCOON,ioos:station:TCOON:127:1,2017-08-07T02:18:00Z,28.2598,-96.7737,0.0,30.0,2 
TCOON,ioos:station:TCOON:127:1,2017-08-07T03:18:00Z,28.2598,-96.7737,0.0,30.0,2 
TCOON,ioos:station:TCOON:127:1,2017-08-07T04:18:00Z,28.2598,-96.7737,0.0,30.0,2 
TCOON,ioos:station:TCOON:127:1,2017-08-07T05:18:00Z,28.2598,-96.7737,0.0,29.8,2 
TCOON,ioos:station:TCOON:127:1,2017-08-07T06:18:00Z,28.2598,-96.7737,0.0,29.7,2 
TCOON,ioos:station:TCOON:127:1,2017-08-07T07:18:00Z,28.2598,-96.7737,0.0,29.6,2 
TCOON,ioos:station:TCOON:127:1,2017-08-07T08:18:00Z,28.2598,-96.7737,0.0,29.6,2 
TCOON,ioos:station:TCOON:127:1,2017-08-07T09:18:00Z,28.2598,-96.7737,0.0,29.6,2 
TCOON,ioos:station:TCOON:127:1,2017-08-07T10:18:00Z,28.2598,-96.7737,0.0,29.4,2 
TCOON,ioos:station:TCOON:127:1,2017-08-07T11:18:00Z,28.2598,-96.7737,0.0,29.5,2 
TCOON,ioos:station:TCOON:127:1,2017-08-07T12:18:00Z,28.2598,-96.7737,0.0,29.4,2 
TCOON,ioos:station:TCOON:127:1,2017-08-07T13:18:00Z,28.2598,-96.7737,0.0,29.4,2 
TCOON,ioos:station:TCOON:127:1,2017-08-07T14:18:00Z,28.2598,-96.7737,0.0,29.5,2 
TCOON,ioos:station:TCOON:127:1,2017-08-07T15:18:00Z,28.2598,-96.7737,0.0,29.6,2 
TCOON,ioos:station:TCOON:127:1,2017-08-07T16:18:00Z,28.2598,-96.7737,0.0,29.8,2 
TCOON,ioos:station:TCOON:127:1,2017-08-07T17:18:00Z,28.2598,-96.7737,0.0,29.9,2 
TCOON,ioos:station:TCOON:127:1,2017-08-07T18:18:00Z,28.2598,-96.7737,0.0,30.3,2 
TCOON,ioos:station:TCOON:127:1,2017-08-07T19:18:00Z,28.2598,-96.7737,0.0,30.5,2 
TCOON,ioos:station:TCOON:127:1,2017-08-07T20:18:00Z,28.2598,-96.7737,0.0,30.8,2 
TCOON,ioos:station:TCOON:127:1,2017-08-07T21:18:00Z,28.2598,-96.7737,0.0,31.2,2 
TCOON,ioos:station:TCOON:127:1,2017-08-07T22:18:00Z,28.2598,-96.7737,0.0,31.8,2 
TCOON,ioos:station:TCOON:127:1,2017-08-07T23:18:00Z,28.2598,-96.7737,0.0,31.3,2 
TCOON,ioos:station:TCOON:127:1,2017-08-08T00:18:00Z,28.2598,-96.7737,0.0,30.9,2 
TCOON,ioos:station:TCOON:127:1,2017-08-08T01:18:00Z,28.2598,-96.7737,0.0,30.7,2 
TCOON,ioos:station:TCOON:127:1,2017-08-08T02:18:00Z,28.2598,-96.7737,0.0,30.9,2 
TCOON,ioos:station:TCOON:127:1,2017-08-08T03:18:00Z,28.2598,-96.7737,0.0,30.8,2 
TCOON,ioos:station:TCOON:127:1,2017-08-08T04:18:00Z,28.2598,-96.7737,0.0,30.6,2 
TCOON,ioos:station:TCOON:127:1,2017-08-08T05:18:00Z,28.2598,-96.7737,0.0,30.6,2 
TCOON,ioos:station:TCOON:127:1,2017-08-08T06:18:00Z,28.2598,-96.7737,0.0,30.4,2 
TCOON,ioos:station:TCOON:127:1,2017-08-08T07:18:00Z,28.2598,-96.7737,0.0,30.3,2 
TCOON,ioos:station:TCOON:127:1,2017-08-08T08:18:00Z,28.2598,-96.7737,0.0,30.3,2 
TCOON,ioos:station:TCOON:127:1,2017-08-08T09:18:00Z,28.2598,-96.7737,0.0,30.0,2 
TCOON,ioos:station:TCOON:127:1,2017-08-08T10:18:00Z,28.2598,-96.7737,0.0,29.8,2 
TCOON,ioos:station:TCOON:127:1,2017-08-08T11:18:00Z,28.2598,-96.7737,0.0,30.0,2 
TCOON,ioos:station:TCOON:127:1,2017-08-08T12:18:00Z,28.2598,-96.7737,0.0,29.8,2 
TCOON,ioos:station:TCOON:127:1,2017-08-08T13:18:00Z,28.2598,-96.7737,0.0,29.5,2 
TCOON,ioos:station:TCOON:127:1,2017-08-08T14:18:00Z,28.2598,-96.7737,0.0,29.6,2 
TCOON,ioos:station:TCOON:127:1,2017-08-08T15:18:00Z,28.2598,-96.7737,0.0,29.6,2 
TCOON,ioos:station:TCOON:127:1,2017-08-08T16:18:00Z,28.2598,-96.7737,0.0,29.8,2 
TCOON,ioos:station:TCOON:127:1,2017-08-08T17:18:00Z,28.2598,-96.7737,0.0,30.0,2 
TCOON,ioos:station:TCOON:127:1,2017-08-08T18:18:00Z,28.2598,-96.7737,0.0,30.8,2 
TCOON,ioos:station:TCOON:127:1,2017-08-08T19:18:00Z,28.2598,-96.7737,0.0,31.7,2 
TCOON,ioos:station:TCOON:127:1,2017-08-08T20:18:00Z,28.2598,-96.7737,0.0,31.6,2 
TCOON,ioos:station:TCOON:127:1,2017-08-08T21:18:00Z,28.2598,-96.7737,0.0,31.7,2 
TCOON,ioos:station:TCOON:127:1,2017-08-08T22:18:00Z,28.2598,-96.7737,0.0,31.6,2 
TCOON,ioos:station:TCOON:127:1,2017-08-08T23:18:00Z,28.2598,-96.7737,0.0,31.6,2 
TCOON,ioos:station:TCOON:127:1,2017-08-09T00:18:00Z,28.2598,-96.7737,0.0,31.4,2 
TCOON,ioos:station:TCOON:127:1,2017-08-09T01:18:00Z,28.2598,-96.7737,0.0,31.3,2 
TCOON,ioos:station:TCOON:127:1,2017-08-09T02:18:00Z,28.2598,-96.7737,0.0,31.2,2 
TCOON,ioos:station:TCOON:127:1,2017-08-09T03:18:00Z,28.2598,-96.7737,0.0,31.0,2 
TCOON,ioos:station:TCOON:127:1,2017-08-09T04:18:00Z,28.2598,-96.7737,0.0,30.9,2 
TCOON,ioos:station:TCOON:127:1,2017-08-09T05:18:00Z,28.2598,-96.7737,0.0,30.8,2 
TCOON,ioos:station:TCOON:127:1,2017-08-09T06:18:00Z,28.2598,-96.7737,0.0,30.7,2 
TCOON,ioos:station:TCOON:127:1,2017-08-09T07:18:00Z,28.2598,-96.7737,0.0,30.6,2 
TCOON,ioos:station:TCOON:127:1,2017-08-09T08:18:00Z,28.2598,-96.7737,0.0,30.7,2 
TCOON,ioos:station:TCOON:127:1,2017-08-09T09:18:00Z,28.2598,-96.7737,0.0,30.6,2 
TCOON,ioos:station:TCOON:127:1,2017-08-09T10:18:00Z,28.2598,-96.7737,0.0,30.6,2 
TCOON,ioos:station:TCOON:127:1,2017-08-09T11:18:00Z,28.2598,-96.7737,0.0,30.9,2 
TCOON,ioos:station:TCOON:127:1,2017-08-09T12:18:00Z,28.2598,-96.7737,0.0,30.7,2 
TCOON,ioos:station:TCOON:127:1,2017-08-09T13:18:00Z,28.2598,-96.7737,0.0,30.5,2 
TCOON,ioos:station:TCOON:127:1,2017-08-09T14:18:00Z,28.2598,-96.7737,0.0,30.4,2 
TCOON,ioos:station:TCOON:127:1,2017-08-09T15:18:00Z,28.2598,-96.7737,0.0,30.4,2 
TCOON,ioos:station:TCOON:127:1,2017-08-09T16:18:00Z,28.2598,-96.7737,0.0,30.3,2 
TCOON,ioos:station:TCOON:127:1,2017-08-09T22:42:00Z,28.2598,-96.7737,0.0,32.1,2 
TCOON,ioos:station:TCOON:127:1,2017-08-09T23:18:00Z,28.2598,-96.7737,0.0,32.1,2 
TCOON,ioos:station:TCOON:127:1,2017-08-10T00:18:00Z,28.2598,-96.7737,0.0,31.9,2 
TCOON,ioos:station:TCOON:127:1,2017-08-10T01:18:00Z,28.2598,-96.7737,0.0,31.9,2 
TCOON,ioos:station:TCOON:127:1,2017-08-10T02:18:00Z,28.2598,-96.7737,0.0,31.6,2 
TCOON,ioos:station:TCOON:127:1,2017-08-10T03:18:00Z,28.2598,-96.7737,0.0,31.5,2 
TCOON,ioos:station:TCOON:127:1,2017-08-10T04:18:00Z,28.2598,-96.7737,0.0,31.4,2 
TCOON,ioos:station:TCOON:127:1,2017-08-10T05:18:00Z,28.2598,-96.7737,0.0,31.2,2 
TCOON,ioos:station:TCOON:127:1,2017-08-10T06:18:00Z,28.2598,-96.7737,0.0,31.1,2 
TCOON,ioos:station:TCOON:127:1,2017-08-10T07:18:00Z,28.2598,-96.7737,0.0,31.0,2 
TCOON,ioos:station:TCOON:127:1,2017-08-10T08:18:00Z,28.2598,-96.7737,0.0,30.9,2 
TCOON,ioos:station:TCOON:127:1,2017-08-10T09:18:00Z,28.2598,-96.7737,0.0,30.8,2 
TCOON,ioos:station:TCOON:127:1,2017-08-10T10:18:00Z,28.2598,-96.7737,0.0,30.7,2 
TCOON,ioos:station:TCOON:127:1,2017-08-10T11:18:00Z,28.2598,-96.7737,0.0,30.7,2 
TCOON,ioos:station:TCOON:127:1,2017-08-10T12:18:00Z,28.2598,-96.7737,0.0,30.7,2 
TCOON,ioos:station:TCOON:127:1,2017-08-10T13:18:00Z,28.2598,-96.7737,0.0,30.7,2 
TCOON,ioos:station:TCOON:127:1,2017-08-10T14:18:00Z,28.2598,-96.7737,0.0,30.7,2 
TCOON,ioos:station:TCOON:127:1,2017-08-10T15:18:00Z,28.2598,-96.7737,0.0,30.7,2 
TCOON,ioos:station:TCOON:127:1,2017-08-10T16:18:00Z,28.2598,-96.7737,0.0,30.7,2 
TCOON,ioos:station:TCOON:127:1,2017-08-10T17:18:00Z,28.2598,-96.7737,0.0,30.8,2 
TCOON,ioos:station:TCOON:127:1,2017-08-10T18:18:00Z,28.2598,-96.7737,0.0,31.0,2 
TCOON,ioos:station:TCOON:127:1,2017-08-10T19:18:00Z,28.2598,-96.7737,0.0,31.2,2 
TCOON,ioos:station:TCOON:127:1,2017-08-10T20:18:00Z,28.2598,-96.7737,0.0,31.9,2 
TCOON,ioos:station:TCOON:127:1,2017-08-10T21:18:00Z,28.2598,-96.7737,0.0,32.1,2 
TCOON,ioos:station:TCOON:127:1,2017-08-10T22:18:00Z,28.2598,-96.7737,0.0,32.3,2 
TCOON,ioos:station:TCOON:127:1,2017-08-10T23:18:00Z,28.2598,-96.7737,0.0,32.3,2 
TCOON,ioos:station:TCOON:127:1,2017-08-11T00:18:00Z,28.2598,-96.7737,0.0,32.2,2 
TCOON,ioos:station:TCOON:127:1,2017-08-11T01:18:00Z,28.2598,-96.7737,0.0,32.0,2 
TCOON,ioos:station:TCOON:127:1,2017-08-11T02:18:00Z,28.2598,-96.7737,0.0,31.8,2 
TCOON,ioos:station:TCOON:127:1,2017-08-11T03:18:00Z,28.2598,-96.7737,0.0,31.7,2 
TCOON,ioos:station:TCOON:127:1,2017-08-11T04:18:00Z,28.2598,-96.7737,0.0,31.6,2 
TCOON,ioos:station:TCOON:127:1,2017-08-11T05:18:00Z,28.2598,-96.7737,0.0,31.5,2 
TCOON,ioos:station:TCOON:127:1,2017-08-11T06:18:00Z,28.2598,-96.7737,0.0,31.3,2 
TCOON,ioos:station:TCOON:127:1,2017-08-11T07:18:00Z,28.2598,-96.7737,0.0,31.2,2 
TCOON,ioos:station:TCOON:127:1,2017-08-11T08:18:00Z,28.2598,-96.7737,0.0,31.1,2 
TCOON,ioos:station:TCOON:127:1,2017-08-11T09:18:00Z,28.2598,-96.7737,0.0,31.0,2 
TCOON,ioos:station:TCOON:127:1,2017-08-11T10:18:00Z,28.2598,-96.7737,0.0,30.8,2 
TCOON,ioos:station:TCOON:127:1,2017-08-11T11:18:00Z,28.2598,-96.7737,0.0,30.8,2 
TCOON,ioos:station:TCOON:127:1,2017-08-11T12:18:00Z,28.2598,-96.7737,0.0,30.7,2 
TCOON,ioos:station:TCOON:127:1,2017-08-11T13:18:00Z,28.2598,-96.7737,0.0,30.6,2 
TCOON,ioos:station:TCOON:127:1,2017-08-11T14:18:00Z,28.2598,-96.7737,0.0,30.7,2 
TCOON,ioos:station:TCOON:127:1,2017-08-11T15:18:00Z,28.2598,-96.7737,0.0,30.9,2 
TCOON,ioos:station:TCOON:127:1,2017-08-11T16:18:00Z,28.2598,-96.7737,0.0,31.0,2 
TCOON,ioos:station:TCOON:127:1,2017-08-11T17:18:00Z,28.2598,-96.7737,0.0,31.3,2 
TCOON,ioos:station:TCOON:127:1,2017-08-11T18:18:00Z,28.2598,-96.7737,0.0,31.7,2 
TCOON,ioos:station:TCOON:127:1,2017-08-11T19:18:00Z,28.2598,-96.7737,0.0,32.2,2 
TCOON,ioos:station:TCOON:127:1,2017-08-11T20:18:00Z,28.2598,-96.7737,0.0,32.6,2 
TCOON,ioos:station:TCOON:127:1,2017-08-11T21:18:00Z,28.2598,-96.7737,0.0,32.7,2 
TCOON,ioos:station:TCOON:127:1,2017-08-11T22:18:00Z,28.2598,-96.7737,0.0,32.7,2 
TCOON,ioos:station:TCOON:127:1,2017-08-11T23:18:00Z,28.2598,-96.7737,0.0,32.5,2 
TCOON,ioos:station:TCOON:127:1,2017-08-12T00:18:00Z,28.2598,-96.7737,0.0,32.4,2 
TCOON,ioos:station:TCOON:127:1,2017-08-12T01:18:00Z,28.2598,-96.7737,0.0,32.2,2 
TCOON,ioos:station:TCOON:127:1,2017-08-12T02:18:00Z,28.2598,-96.7737,0.0,31.9,2 
TCOON,ioos:station:TCOON:127:1,2017-08-12T03:18:00Z,28.2598,-96.7737,0.0,31.7,2 
TCOON,ioos:station:TCOON:127:1,2017-08-12T04:18:00Z,28.2598,-96.7737,0.0,31.6,2 
TCOON,ioos:station:TCOON:127:1,2017-08-12T05:18:00Z,28.2598,-96.7737,0.0,31.4,2 
TCOON,ioos:station:TCOON:127:1,2017-08-12T06:18:00Z,28.2598,-96.7737,0.0,31.2,2 
TCOON,ioos:station:TCOON:127:1,2017-08-12T07:18:00Z,28.2598,-96.7737,0.0,31.2,2 
TCOON,ioos:station:TCOON:127:1,2017-08-12T08:18:00Z,28.2598,-96.7737,0.0,31.0,2 
TCOON,ioos:station:TCOON:127:1,2017-08-12T09:18:00Z,28.2598,-96.7737,0.0,30.9,2 
TCOON,ioos:station:TCOON:127:1,2017-08-12T10:18:00Z,28.2598,-96.7737,0.0,30.8,2 
TCOON,ioos:station:TCOON:127:1,2017-08-12T11:18:00Z,28.2598,-96.7737,0.0,30.7,2 
TCOON,ioos:station:TCOON:127:1,2017-08-12T12:18:00Z,28.2598,-96.7737,0.0,30.5,2 
TCOON,ioos:station:TCOON:127:1,2017-08-12T13:18:00Z,28.2598,-96.7737,0.0,30.4,2 
TCOON,ioos:station:TCOON:127:1,2017-08-12T14:18:00Z,28.2598,-96.7737,0.0,30.4,2 
TCOON,ioos:station:TCOON:127:1,2017-08-12T15:18:00Z,28.2598,-96.7737,0.0,30.5,2 
TCOON,ioos:station:TCOON:127:1,2017-08-12T16:18:00Z,28.2598,-96.7737,0.0,30.7,2 
TCOON,ioos:station:TCOON:127:1,2017-08-12T17:18:00Z,28.2598,-96.7737,0.0,31.2,2 
TCOON,ioos:station:TCOON:127:1,2017-08-12T18:18:00Z,28.2598,-96.7737,0.0,31.6,2 
TCOON,ioos:station:TCOON:127:1,2017-08-12T19:18:00Z,28.2598,-96.7737,0.0,31.7,2 
TCOON,ioos:station:TCOON:127:1,2017-08-12T20:18:00Z,28.2598,-96.7737,0.0,32.0,2 
TCOON,ioos:station:TCOON:127:1,2017-08-12T21:18:00Z,28.2598,-96.7737,0.0,32.2,2 
TCOON,ioos:station:TCOON:127:1,2017-08-12T22:18:00Z,28.2598,-96.7737,0.0,32.3,2 
TCOON,ioos:station:TCOON:127:1,2017-08-12T23:18:00Z,28.2598,-96.7737,0.0,32.3,2 
TCOON,ioos:station:TCOON:127:1,2017-08-13T00:18:00Z,28.2598,-96.7737,0.0,32.3,2 
TCOON,ioos:station:TCOON:127:1,2017-08-13T01:18:00Z,28.2598,-96.7737,0.0,32.1,2 
TCOON,ioos:station:TCOON:127:1,2017-08-13T02:18:00Z,28.2598,-96.7737,0.0,31.9,2 
TCOON,ioos:station:TCOON:127:1,2017-08-13T03:18:00Z,28.2598,-96.7737,0.0,31.7,2 
TCOON,ioos:station:TCOON:127:1,2017-08-13T04:18:00Z,28.2598,-96.7737,0.0,31.5,2 
TCOON,ioos:station:TCOON:127:1,2017-08-13T05:18:00Z,28.2598,-96.7737,0.0,31.4,2 
TCOON,ioos:station:TCOON:127:1,2017-08-13T06:18:00Z,28.2598,-96.7737,0.0,31.2,2 
TCOON,ioos:station:TCOON:127:1,2017-08-13T07:18:00Z,28.2598,-96.7737,0.0,31.1,2 
TCOON,ioos:station:TCOON:127:1,2017-08-13T08:18:00Z,28.2598,-96.7737,0.0,30.9,2 
TCOON,ioos:station:TCOON:127:1,2017-08-13T09:18:00Z,28.2598,-96.7737,0.0,30.8,2 
TCOON,ioos:station:TCOON:127:1,2017-08-13T10:18:00Z,28.2598,-96.7737,0.0,30.6,2 
TCOON,ioos:station:TCOON:127:1,2017-08-13T11:18:00Z,28.2598,-96.7737,0.0,30.5,2 
TCOON,ioos:station:TCOON:127:1,2017-08-13T12:18:00Z,28.2598,-96.7737,0.0,30.4,2 
TCOON,ioos:station:TCOON:127:1,2017-08-13T13:18:00Z,28.2598,-96.7737,0.0,30.3,2 
TCOON,ioos:station:TCOON:127:1,2017-08-13T14:18:00Z,28.2598,-96.7737,0.0,30.3,2 
TCOON,ioos:station:TCOON:127:1,2017-08-13T15:18:00Z,28.2598,-96.7737,0.0,30.4,2 
TCOON,ioos:station:TCOON:127:1,2017-08-13T16:18:00Z,28.2598,-96.7737,0.0,30.6,2 
TCOON,ioos:station:TCOON:127:1,2017-08-13T17:18:00Z,28.2598,-96.7737,0.0,30.7,2 
TCOON,ioos:station:TCOON:127:1,2017-08-13T18:18:00Z,28.2598,-96.7737,0.0,31.0,2 
TCOON,ioos:station:TCOON:127:1,2017-08-13T19:18:00Z,28.2598,-96.7737,0.0,31.3,2 
TCOON,ioos:station:TCOON:127:1,2017-08-13T20:18:00Z,28.2598,-96.7737,0.0,31.6,2 
TCOON,ioos:station:TCOON:127:1,2017-08-13T21:18:00Z,28.2598,-96.7737,0.0,31.9,2 
TCOON,ioos:station:TCOON:127:1,2017-08-13T22:18:00Z,28.2598,-96.7737,0.0,32.1,2 
TCOON,ioos:station:TCOON:127:1,2017-08-13T23:18:00Z,28.2598,-96.7737,0.0,32.0,2 
TCOON,ioos:station:TCOON:127:1,2017-08-14T00:18:00Z,28.2598,-96.7737,0.0,31.7,2 
TCOON,ioos:station:TCOON:127:1,2017-08-14T01:18:00Z,28.2598,-96.7737,0.0,31.6,2 
TCOON,ioos:station:TCOON:127:1,2017-08-14T02:18:00Z,28.2598,-96.7737,0.0,31.4,2 
TCOON,ioos:station:TCOON:127:1,2017-08-14T03:18:00Z,28.2598,-96.7737,0.0,31.1,2 
TCOON,ioos:station:TCOON:127:1,2017-08-14T04:18:00Z,28.2598,-96.7737,0.0,31.0,2 
TCOON,ioos:station:TCOON:127:1,2017-08-14T05:18:00Z,28.2598,-96.7737,0.0,30.9,2 
TCOON,ioos:station:TCOON:127:1,2017-08-14T06:18:00Z,28.2598,-96.7737,0.0,30.8,2 
TCOON,ioos:station:TCOON:127:1,2017-08-14T07:18:00Z,28.2598,-96.7737,0.0,30.6,2 
TCOON,ioos:station:TCOON:127:1,2017-08-14T08:18:00Z,28.2598,-96.7737,0.0,30.4,2 
TCOON,ioos:station:TCOON:127:1,2017-08-14T09:18:00Z,28.2598,-96.7737,0.0,30.2,2 
TCOON,ioos:station:TCOON:127:1,2017-08-14T10:18:00Z,28.2598,-96.7737,0.0,30.0,2 
TCOON,ioos:station:TCOON:127:1,2017-08-14T11:18:00Z,28.2598,-96.7737,0.0,29.9,2 
TCOON,ioos:station:TCOON:127:1,2017-08-14T12:18:00Z,28.2598,-96.7737,0.0,29.7,2 
TCOON,ioos:station:TCOON:127:1,2017-08-14T13:18:00Z,28.2598,-96.7737,0.0,29.6,2 
TCOON,ioos:station:TCOON:127:1,2017-08-14T14:18:00Z,28.2598,-96.7737,0.0,29.4,2 
TCOON,ioos:station:TCOON:127:1,2017-08-14T15:18:00Z,28.2598,-96.7737,0.0,29.6,2 
TCOON,ioos:station:TCOON:127:1,2017-08-14T16:18:00Z,28.2598,-96.7737,0.0,29.9,2 
TCOON,ioos:station:TCOON:127:1,2017-08-14T17:18:00Z,28.2598,-96.7737,0.0,30.2,2 
TCOON,ioos:station:TCOON:127:1,2017-08-14T18:18:00Z,28.2598,-96.7737,0.0,30.6,2 
TCOON,ioos:station:TCOON:127:1,2017-08-14T19:18:00Z,28.2598,-96.7737,0.0,31.0,2 
TCOON,ioos:station:TCOON:127:1,2017-08-14T20:18:00Z,28.2598,-96.7737,0.0,31.3,2 
TCOON,ioos:station:TCOON:127:1,2017-08-14T21:18:00Z,28.2598,-96.7737,0.0,31.2,2 
TCOON,ioos:station:TCOON:127:1,2017-08-14T22:18:00Z,28.2598,-96.7737,0.0,31.2,2 
TCOON,ioos:station:TCOON:127:1,2017-08-14T23:18:00Z,28.2598,-96.7737,0.0,31.1,2 
TCOON,ioos:station:TCOON:127:1,2017-08-15T00:18:00Z,28.2598,-96.7737,0.0,30.9,2 
TCOON,ioos:station:TCOON:127:1,2017-08-15T01:18:00Z,28.2598,-96.7737,0.0,30.8,2 
TCOON,ioos:station:TCOON:127:1,2017-08-15T02:18:00Z,28.2598,-96.7737,0.0,30.6,2 
TCOON,ioos:station:TCOON:127:1,2017-08-15T03:18:00Z,28.2598,-96.7737,0.0,30.6,2 
TCOON,ioos:station:TCOON:127:1,2017-08-15T04:18:00Z,28.2598,-96.7737,0.0,30.4,2 
TCOON,ioos:station:TCOON:127:1,2017-08-15T05:18:00Z,28.2598,-96.7737,0.0,30.4,2 
TCOON,ioos:station:TCOON:127:1,2017-08-15T06:18:00Z,28.2598,-96.7737,0.0,30.2,2 
TCOON,ioos:station:TCOON:127:1,2017-08-15T07:18:00Z,28.2598,-96.7737,0.0,30.1,2 
TCOON,ioos:station:TCOON:127:1,2017-08-15T08:18:00Z,28.2598,-96.7737,0.0,29.8,2 
TCOON,ioos:station:TCOON:127:1,2017-08-15T09:18:00Z,28.2598,-96.7737,0.0,29.8,2 
TCOON,ioos:station:TCOON:127:1,2017-08-15T10:18:00Z,28.2598,-96.7737,0.0,29.6,2 
TCOON,ioos:station:TCOON:127:1,2017-08-15T11:18:00Z,28.2598,-96.7737,0.0,29.4,2 
TCOON,ioos:station:TCOON:127:1,2017-08-15T12:18:00Z,28.2598,-96.7737,0.0,29.4,2 
TCOON,ioos:station:TCOON:127:1,2017-08-15T13:18:00Z,28.2598,-96.7737,0.0,29.1,2 
TCOON,ioos:station:TCOON:127:1,2017-08-15T14:18:00Z,28.2598,-96.7737,0.0,29.1,2 
TCOON,ioos:station:TCOON:127:1,2017-08-15T15:18:00Z,28.2598,-96.7737,0.0,29.4,2 
TCOON,ioos:station:TCOON:127:1,2017-08-15T16:18:00Z,28.2598,-96.7737,0.0,29.7,2 
TCOON,ioos:station:TCOON:127:1,2017-08-15T19:18:00Z,28.2598,-96.7737,0.0,30.3,2 
TCOON,ioos:station:TCOON:127:1,2017-08-15T20:24:00Z,28.2598,-96.7737,0.0,30.2,2 
TCOON,ioos:station:TCOON:127:1,2017-08-15T21:30:00Z,28.2598,-96.7737,0.0,30.2,2 